| time (UTC) | temp F | wind direction | speed knots | gust knots | rain 1hr in | rain 24hr in | rain mn in | humidity % | barometer mb |
| 20260901070109 | 81 | 0 | 0.0 | 0.9 | 0.00 | 0.00 | 0.00 | 77 | 1014.6 |
| 20260901064604 | 82 | 0 | 0.0 | 0.0 | 0.00 | 0.00 | 0.00 | 77 | 1014.7 |
| 20260901063059 | 82 | 0 | 0.0 | 0.9 | 0.00 | 0.00 | 0.00 | 76 | 1014.8 |
| 20260901061602 | 82 | 0 | 0.0 | 0.9 | 0.00 | 0.00 | 0.00 | 75 | 1014.8 |
| 20260901060105 | 83 | 0 | 0.0 | 0.9 | 0.00 | 0.00 | 0.00 | 74 | 1014.6 |
| 20260901054609 | 83 | 0 | 0.0 | 0.9 | 0.00 | 0.00 | 0.00 | 72 | 1014.6 |
| 20260901053105 | 83 | 0 | 0.0 | 0.0 | 0.00 | 0.00 | 0.00 | 71 | 1014.5 |
| 20260901051608 | 84 | 0 | 0.0 | 0.9 | 0.00 | 0.00 | 0.00 | 70 | 1014.2 |
| 20260901050108 | 84 | 0 | 0.0 | 0.9 | 0.00 | 0.00 | 0.00 | 69 | 1014.2 |
| 20260901044601 | 84 | 0 | 0.0 | 0.9 | 0.00 | 0.00 | 0.00 | 68 | 1014.2 |
| 20260901043102 | 85 | 0 | 0.0 | 0.9 | 0.00 | 0.00 | 0.00 | 68 | 1013.9 |
| 20260901041625 | 85 | 0 | 0.0 | 1.7 | 0.00 | 0.00 | 0.00 | 67 | 1013.9 |
| 20260901040113 | 85 | 0 | 0.0 | 0.9 | 0.00 | 0.00 | 0.00 | 66 | 1013.8 |
| 20260901034610 | 86 | 0 | 0.0 | 0.0 | 0.00 | 0.00 | 0.00 | 66 | 1013.7 |
| 20260901033107 | 86 | 0 | 0.0 | 0.9 | 0.00 | 0.00 | 0.00 | 67 | 1013.6 |
| 20260901031559 | 86 | 0 | 0.0 | 1.7 | 0.00 | 0.00 | 0.00 | 66 | 1013.4 |
| 20260901030100 | 87 | 0 | 0.0 | 0.0 | 0.00 | 0.00 | 0.00 | 66 | 1013.5 |
| 20260901024603 | 87 | 0 | 0.0 | 0.0 | 0.00 | 0.00 | 0.00 | 66 | 1013.1 |
| 20260901023101 | 88 | 0 | 0.0 | 0.0 | 0.00 | 0.00 | 0.00 | 65 | 1012.9 |
| 20260901021600 | 88 | 0 | 0.0 | 0.9 | 0.00 | 0.00 | 0.00 | 64 | 1012.9 |
| 20260901020105 | 89 | 0 | 0.0 | 0.9 | 0.00 | 0.00 | 0.00 | 63 | 1012.8 |
| 20260901014605 | 89 | 0 | 0.0 | 1.7 | 0.00 | 0.06 | 0.00 | 62 | 1012.5 |
| 20260901013110 | 90 | 0 | 0.0 | 0.9 | 0.00 | 0.06 | 0.00 | 61 | 1012.8 |
| 20260901011600 | 91 | 0 | 0.0 | 1.7 | 0.00 | 0.06 | 0.00 | 60 | 1012.5 |
| 20260901010108 | 91 | 135 | 0.9 | 2.6 | 0.00 | 0.06 | 0.00 | 57 | 1012.5 |
| 20260901004606 | 93 | 171 | 1.7 | 3.5 | 0.00 | 0.11 | 0.00 | 56 | 1012.4 |
| 20260901003103 | 94 | 0 | 0.9 | 5.2 | 0.00 | 0.11 | 0.00 | 54 | 1012.4 |
| 20260901001559 | 95 | 0 | 0.0 | 1.7 | 0.00 | 0.11 | 0.00 | 47 | 1012.1 |
| 20260901000105 | 96 | 0 | 0.0 | 1.7 | 0.00 | 0.11 | 0.00 | 47 | 1011.9 |
| 20260831234559 | 96 | 0 | 0.0 | 0.9 | 0.00 | 0.11 | 0.00 | 48 | 1012.0 |
| 20260831233107 | 96 | 360 | 0.0 | 0.9 | 0.00 | 0.11 | 0.00 | 47 | 1012.1 |
| 20260831231611 | 96 | 0 | 0.0 | 0.9 | 0.00 | 0.11 | 0.00 | 47 | 1012.0 |
| 20260831230106 | 96 | 0 | 0.0 | 0.0 | 0.00 | 0.11 | 0.00 | 46 | 1012.0 |
| 20260831224609 | 97 | 0 | 0.0 | 1.7 | 0.00 | 0.11 | 0.00 | 45 | 1012.3 |
| 20260831223105 | 97 | 96 | 0.0 | 1.7 | 0.00 | 0.11 | 0.00 | 45 | 1012.1 |
| 20260831221607 | 97 | 0 | 0.0 | 1.7 | 0.00 | 0.11 | 0.00 | 44 | 1012.3 |
| 20260831220105 | 97 | 0 | 0.9 | 2.6 | 0.00 | 0.11 | 0.00 | 44 | 1012.2 |
| 20260831214630 | 97 | 0 | 0.0 | 1.7 | 0.00 | 0.11 | 0.00 | 46 | 1012.4 |
| 20260831213103 | 98 | 0 | 0.0 | 1.7 | 0.00 | 0.11 | 0.00 | 44 | 1012.5 |
| 20260831211608 | 98 | 103 | 0.9 | 4.3 | 0.00 | 0.11 | 0.00 | 44 | 1012.6 |
| 20260831210100 | 98 | 0 | 0.0 | 2.6 | 0.00 | 0.11 | 0.00 | 44 | 1012.8 |
| 20260831204600 | 99 | 70 | 0.9 | 4.3 | 0.00 | 0.11 | 0.00 | 44 | 1013.0 |
| 20260831203105 | 99 | 103 | 0.0 | 2.6 | 0.00 | 0.11 | 0.00 | 43 | 1013.2 |
| 20260831201558 | 97 | 0 | 0.0 | 2.6 | 0.00 | 0.11 | 0.00 | 46 | 1013.5 |
| 20260831200100 | 97 | 0 | 0.9 | 2.6 | 0.00 | 0.11 | 0.00 | 44 | 1013.7 |
| 20260831194624 | 97 | 76 | 0.9 | 2.6 | 0.00 | 0.11 | 0.00 | 46 | 1014.1 |
| 20260831193101 | 98 | 76 | 1.7 | 4.3 | 0.00 | 0.11 | 0.00 | 46 | 1014.4 |
| 20260831191603 | 98 | 74 | 0.0 | 3.5 | 0.00 | 0.11 | 0.00 | 46 | 1014.5 |
| 20260831190111 | 98 | 69 | 0.9 | 3.5 | 0.00 | 0.11 | 0.00 | 47 | 1014.6 |
| 20260831184605 | 97 | 11 | 0.0 | 2.6 | 0.00 | 0.11 | 0.00 | 47 | 1014.7 |
| 20260831183108 | 97 | 67 | 0.9 | 3.5 | 0.00 | 0.11 | 0.00 | 47 | 1015.2 |
| 20260831181601 | 96 | 0 | 0.0 | 1.7 | 0.00 | 0.11 | 0.00 | 49 | 1015.0 |
| 20260831180101 | 96 | 117 | 0.0 | 2.6 | 0.00 | 0.11 | 0.00 | 51 | 1015.5 |
| 20260831174604 | 95 | 65 | 0.9 | 4.3 | 0.00 | 0.11 | 0.00 | 49 | 1015.7 |
| 20260831173100 | 95 | 246 | 0.0 | 5.2 | 0.00 | 0.11 | 0.00 | 50 | 1015.8 |
| 20260831171602 | 94 | 66 | 0.9 | 3.5 | 0.00 | 0.11 | 0.00 | 53 | 1015.7 |
| 20260831170107 | 93 | 0 | 0.9 | 3.5 | 0.00 | 0.11 | 0.00 | 56 | 1015.7 |
| 20260831164613 | 92 | 0 | 0.9 | 2.6 | 0.00 | 0.11 | 0.00 | 57 | 1016.0 |
| 20260831163106 | 90 | 360 | 0.0 | 2.6 | 0.00 | 0.11 | 0.00 | 59 | 1016.1 |
| 20260831161605 | 89 | 0 | 0.0 | 2.6 | 0.00 | 0.11 | 0.00 | 64 | 1016.2 |
| 20260831154629 | 86 | 133 | 0.0 | 0.9 | 0.00 | 0.11 | 0.00 | 71 | 1016.0 |
| 20260831153102 | 85 | 0 | 0.0 | 1.7 | 0.00 | 0.11 | 0.00 | 76 | 1016.0 |
| 20260831151601 | 84 | 0 | 0.0 | 0.9 | 0.00 | 0.11 | 0.00 | 79 | 1015.8 |
| 20260831150104 | 83 | 0 | 0.0 | 1.7 | 0.00 | 0.11 | 0.00 | 83 | 1015.8 |
| 20260831144610 | 82 | 0 | 0.0 | 0.9 | 0.00 | 0.11 | 0.00 | 86 | 1015.9 |
| 20260831143112 | 81 | 0 | 0.0 | 0.9 | 0.00 | 0.11 | 0.00 | 89 | 1016.0 |
| 20260831141607 | 80 | 0 | 0.0 | 0.0 | 0.00 | 0.11 | 0.00 | 90 | 1015.7 |
| 20260831140107 | 79 | 0 | 0.0 | 0.0 | 0.00 | 0.11 | 0.00 | 90 | 1015.7 |
| 20260831134604 | 78 | 0 | 0.0 | 0.0 | 0.00 | 0.11 | 0.00 | 91 | 1015.6 |
| 20260831133102 | 78 | 0 | 0.0 | 0.0 | 0.00 | 0.11 | 0.00 | 91 | 1015.7 |
| 20260831131605 | 77 | 0 | 0.0 | 0.0 | 0.00 | 0.11 | 0.00 | 90 | 1015.3 |
| 20260831130121 | 76 | 0 | 0.0 | 0.0 | 0.00 | 0.11 | 0.00 | 90 | 1015.1 |
| 20260831124606 | 76 | 0 | 0.0 | 0.0 | 0.00 | 0.11 | 0.00 | 89 | 1015.1 |
| 20260831123107 | 76 | 0 | 0.0 | 0.0 | 0.00 | 0.11 | 0.00 | 89 | 1014.8 |
| 20260831121612 | 76 | 0 | 0.0 | 0.0 | 0.00 | 0.11 | 0.00 | 89 | 1014.8 |
| 20260831120100 | 76 | 0 | 0.0 | 0.0 | 0.00 | 0.11 | 0.00 | 88 | 1014.7 |
| 20260831114607 | 76 | 0 | 0.0 | 0.0 | 0.00 | 0.11 | 0.00 | 88 | 1014.6 |
| 20260831113102 | 76 | 0 | 0.0 | 0.0 | 0.00 | 0.11 | 0.00 | 88 | 1014.4 |
| 20260831111604 | 76 | 0 | 0.0 | 0.0 | 0.00 | 0.11 | 0.00 | 87 | 1014.6 |
| 20260831110107 | 77 | 0 | 0.0 | 0.0 | 0.00 | 0.11 | 0.00 | 87 | 1014.4 |
| 20260831104605 | 77 | 0 | 0.0 | 0.0 | 0.00 | 0.11 | 0.00 | 87 | 1014.3 |
| 20260831103100 | 77 | 0 | 0.0 | 0.0 | 0.00 | 0.11 | 0.00 | 86 | 1014.4 |
| 20260831101606 | 77 | 0 | 0.0 | 0.0 | 0.00 | 0.11 | 0.00 | 86 | 1014.3 |
| 20260831094601 | 77 | 0 | 0.0 | 0.0 | 0.00 | 0.11 | 0.00 | 85 | 1014.3 |
| 20260831093102 | 77 | 0 | 0.0 | 0.0 | 0.00 | 0.11 | 0.00 | 84 | 1014.2 |
| 20260831091611 | 78 | 0 | 0.0 | 0.0 | 0.00 | 0.11 | 0.00 | 84 | 1014.0 |
| 20260831084610 | 78 | 0 | 0.0 | 0.0 | 0.00 | 0.11 | 0.00 | 84 | 1014.0 |
| 20260831083101 | 78 | 0 | 0.0 | 0.9 | 0.00 | 0.11 | 0.00 | 83 | 1014.1 |
| 20260831081607 | 79 | 0 | 0.0 | 0.0 | 0.00 | 0.11 | 0.00 | 82 | 1014.2 |
| 20260831074604 | 79 | 0 | 0.0 | 0.0 | 0.00 | 0.11 | 0.00 | 81 | 1014.4 |
| 20260831073111 | 79 | 0 | 0.0 | 0.0 | 0.00 | 0.11 | 0.00 | 81 | 1014.3 |
| 20260831071606 | 80 | 0 | 0.0 | 0.0 | 0.00 | 0.11 | 0.00 | 80 | 1014.5 |